Weather Roundup
Issued by NWS

Home | Current Version | Previous Version | Text Only | Print | Product List | Glossary On
Versions: 1 2 3 4 5 6 7 8 9 10 11 12 13 14 15 16 17 18 19 20 21 22 23 24 25 26 27 28 29 30 31 32 33 34 35 36 37 38 39 40 41 42 43 44 45 46 47 48 49 50
000
NZUS93 KARX 300310
HRRWXR

CURRENT HOURLY OBSERVATIONS ACROSS
MUCH OF THE UPPER MISSISSIPPI VALLEY
NATIONAL WEATHER SERVICE LA CROSSE WI
900 PM CST THU JAN 29 2015


...SOUTHEAST MINNESOTA...


CITY           SKY/WX    TMP DP  RH WIND       PRES   REMARKS
ROCHESTER      MOCLDY    21  12  68 N21G26    30.41R WCI   5
ROCHESTER/MAYO FAIR      22  11  62 NW13G23   30.42R WCI  10
WINONA         CLOUDY    25  14  63 NW14      30.43R WCI  13
AUSTIN         CLEAR     21  16  79 NW15      30.43R WCI   8
ALBERT LEA     CLEAR     19  16  86 NW6       30.45R WCI  11
DODGE CENTER   PTCLDY    21  14  73 N15G22    30.42R WCI   8
PRESTON        MOCLDY    22  13  70 N17G26    30.40R WCI   7
OWATONNA       CLEAR     19  12  73 NW15      30.46R WCI   5
FARIBAULT      CLEAR     19  10  68 NW17G23   30.47R WCI   4
$$

...ELSEWHERE IN MINNESOTA...


CITY           SKY/WX    TMP DP  RH WIND       PRES   REMARKS
MINNEAPOLIS    CLEAR     18   6  59 N13       30.50R WCI   5
INTNL FALLS    CLEAR     -3  -7  82 CALM      30.47S
DULUTH         PTCLDY     8   0  69 NW9       30.41R WCI  -5
RED WING       CLEAR     18   9  68 N9        30.48R WCI   6
REDWOOD FALLS  CLEAR     16  10  77 NW12      30.54R WCI   3
MANKATO        CLEAR     19   9  63 NW16      30.49R WCI   5
WORTHINGTON    CLOUDY    19  12  73 N14       30.51R WCI   6
FAIRMONT       CLEAR     18  10  73 NW14G20   30.48R WCI   4
$$

...SOUTHWEST WISCONSIN...


CITY           SKY/WX    TMP DP  RH WIND       PRES   REMARKS
LA CROSSE      CLOUDY    26  14  60 NW17G28   30.40R WCI  13
PRAIRIE DU CHI MOCLDY    28  14  55 NW13G22   30.38R WCI  18
BOSCOBEL       CLOUDY    29  14  53 NW13      30.37R WCI  19
LONE ROCK      CLOUDY    30  16  56 N15       30.34R WCI  19
PLATTEVILLE    MOCLDY    28  17  65 NW18G26   30.32R WCI  15
FORT MC COY    CLOUDY    24  12  58 NW17      30.39R WCI  11
CAMP DOUGLAS   FLURRIES  25  19  80 NW14G23   30.33R WCI  13
VIROQUA        MOCLDY    24  13  63 N17       30.33R WCI  11
WIS DELLS      CLOUDY    28  16  60 N10G18    30.30R WCI  18
$$

...ELSEWHERE IN WISCONSIN...


CITY           SKY/WX    TMP DP  RH WIND       PRES   REMARKS
MILWAUKEE      FLURRIES  31  17  56 N20G26    30.23R WCI  19
MADISON        FLURRIES  29  19  66 N10       30.28R WCI  20
GREEN BAY      CLOUDY    24   9  52 N21G32    30.29R WCI   9
EAU CLAIRE     MOCLDY    19   7  59 N9        30.42R WCI   8
BLACK RVR FLS  CLOUDY    24  11  57 NW14G21   30.38R WCI  11
MEDFORD        CLOUDY    18   9  69 N17G24    30.31R WCI   2
WAUSAU         LGT SNOW  20  14  77 NW12      30.29R WCI   8
WIS RAPIDS     CLOUDY    23  13  65 NW13G22   30.33R WCI  11
MARSHFIELD     CLOUDY    21  10  62 NW21G28   30.32R WCI   5
RICE LAKE      CLOUDY    16   7  68 NW9       30.45R WCI   4
$$

...NORTHEAST IOWA...


CITY           SKY/WX    TMP DP  RH WIND       PRES   REMARKS
DECORAH        CLOUDY    25  14  63 NW13G20   30.38R WCI  13
MASON CITY     CLOUDY    21  15  78 NW15      30.46R WCI   8
CHARLES CITY   CLOUDY    25  16  68 NW18G26   30.43R WCI  11
OELWEIN        CLOUDY    25  18  74 N22       30.41R WCI  10
$$

...ELSEWHERE IN IOWA...


CITY           SKY/WX    TMP DP  RH WIND       PRES   REMARKS
DES MOINES     PTCLDY    30  20  66 N13       30.48R WCI  20
IOWA CITY      CLOUDY    29  19  66 NW20G26   30.43R WCI  16
FORT DODGE     PTCLDY    25  16  68 N10G16    30.50R WCI  15
$$

...NORTHERN ILLINOIS...


CITY           SKY/WX    TMP DP  RH WIND       PRES   REMARKS
CHICAGO-OHARE  CLOUDY    34  19  54 NW15      30.22R WCI  24
CHICAGO-MIDWAY CLOUDY    36  20  52 NW17      30.23R WCI  26
MOLINE         CLOUDY    32  21  64 NW17G26   30.36R WCI  21
ROCKFORD       CLOUDY    33  19  56 N16G23    30.29R WCI  23
PEORIA         CLOUDY    35  24  64 NW14G21   30.34R WCI  26
$$

NOTE: "FAIR" INDICATES FEW OR NO CLOUDS BELOW 12,000 FEET WITH NO
SIGNIFICANT WEATHER AND/OR OBSTRUCTIONS TO VISIBILITY. WIND
SPEEDS ARE IN MILES-PER-HOUR.



USA.gov is the U.S. government's official web portal to all federal, state and local government web resources and services.